878  
ASUS41 KOKX 232013  
RWROKX  
 
REGIONAL WEATHER ROUNDUP  
NATIONAL WEATHER SERVICE NEW YORK NY  
400 PM EDT TUE APR 23 2019  
 
NOTE: "FAIR" INDICATES FEW OR NO CLOUDS BELOW 12,000 FEET WITH NO  
SIGNIFICANT WEATHER AND/OR S TO VISIBILITY
.  
 
NYZ071-072-176-178-NJZ106-104-232100-  
NEW YORK CITY METRO AREA  
 
CITY SKY/WX TMP DP RH WIND PRES REMARKS
 
CENTRAL PARK FAIR 71 48 43 MISG 29.90R  
BRONX LEHMAN C N/A 70 48 46 S14 N/A  
LAGUARDIA ARPT PTSUNNY 68 47 46 S16 29.86F  
QUEENS COLLEGE N/A 66 48 52 S15 N/A  
KENNEDY INTL FAIR 65 51 60 S15 29.90F  
BREEZY POINT N/A 57 N/A N/A S13 N/A  
BROOKLYN COLL N/A 63 48 59 SE14 N/A  
STATEN ISLAND N/A 66 50 55 SE9 N/A  
NEWARK/LIBERTY PTSUNNY 71 49 45 SE12 29.86F  
TETERBORO FAIR 74 50 42 S12G26 29.84F  

 
 
NYZ177-179-078>081-232100-  
LONG ISLAND NEW YORK  
 
CITY SKY/WX TMP DP RH WIND PRES REMARKS
 
JONES BEACH N/A 59 N/A N/A S10 N/A  
WANTAGH N/A 64 50 59 SE13 N/A  
HEMPSTEAD N/A 68 50 52 SE9 29.93S  
MATINECOCK PT N/A 72 N/A N/A SW8 N/A  
FARMINGDALE FAIR 66 49 54 S12 29.88F  
MACARTHUR/ISP PTSUNNY 66 49 54 S12 29.89F  
STONY BROOK N/A 70 50 49 S7 N/A  
SHIRLEY FAIR 66 48 52 S12 29.89F  
MT SINAI HARB N/A N/A N/A N/A S6 N/A  
WESTHAMPTON FAIR 64 49 57 SW7 29.91F  
EAST HAMPTON FAIR 60 51 72 S7 29.90F  
SOUTHOLD N/A 64 52 63 S12 N/A  
MONTAUK N/A 59 51 75 S6 29.91F  

 
 
NYZ052-065-067-232100-  
HUDSON VALLEY  
 
CITY SKY/WX TMP DP RH WIND PRES REMARKS
 
WHITE PLAINS FAIR 72 49 44 SE14 29.85F  
LARCHMONT HARB N/A 63 N/A N/A S9 N/A  
CROTON ON HUDS N/A 72 N/A N/A S6 N/A  
SOMERS N/A 72 46 40 SW8 N/A  
BREWSTER N/A 75 46 35 S5 N/A  
NEWBURGH MOSUNNY 77 48 36 SW6 29.84F  
MONTGOMERY FAIR 77 48 35 SW15 29.80F  
OTISVILLE N/A 77 43 29 W5 N/A  
WARWICK N/A 75 46 35 SW9 N/A  
SUFFERN N/A 75 46 35 S8 N/A  
POUGHKEEPSIE FAIR 76 46 34 S5 29.80F  
ALBANY PTSUNNY 73 44 35 SE7 29.81F  

 
 
NJZ001-105-106-008-010-013-015-019>022-104-232100-  
NEW JERSEY  
 
CITY SKY/WX TMP DP RH WIND PRES REMARKS
 
NEWARK/LIBERTY PTSUNNY 71 49 45 SE12 29.86F  
TETERBORO FAIR 74 50 42 S12G26 29.84F  
CALDWELL FAIR 78 45 30 VRB7 29.85F  
SOMERVILLE FAIR 78 46 32 VRB7 29.84F  
LINDEN FAIR 73 49 43 SE9 29.87F  
PERTH AMBOY N/A 68 N/A N/A E12 N/A  
SUSSEX FAIR 77 49 37 S8G16 29.84F  
ANDOVER N/A 75 45 34 VRB6 29.85F  
TRENTON FAIR 77 46 33 W9 29.86F  
MILLVILLE FAIR 78 49 35 W10 29.89F  
ATLANTIC CITY FAIR 81 46 29 SW9 29.87F  
WRIGHTSTOWN FAIR 80 45 29 W10 29.85  
TOMS RIVER FAIR 81 46 29 NW9G16 29.87F  
BELMAR FAIR 71 53 52 E12 29.89F  

 
 
PAZ047>061-062-071-232100-  
EASTERN PENNSYLVANIA  
 
CITY SKY/WX TMP DP RH WIND PRES REMARKS
 
PHILADELPHIA PTSUNNY 78 46 32 SW14 29.88F  
ALLENTOWN FAIR 77 48 35 W9G17 29.85F  
SCRANTON LGT RAIN 74 44 34 SW7 29.85F  

 
 
CTZ002-004>006-009-010-012-RIZ004-006-007-MAZ004-011-015-232100-  
SOUTHERN NEW ENGLAND  
 
IN CT  
 
CITY SKY/WX TMP DP RH WIND PRES REMARKS
 
BRADLEY INTL FAIR 74 51 44 S13 29.82F  
HARTFORD FAIR 72 51 47 SE8 29.83F  
DANBURY FAIR 74 45 35 VRB5 29.85F  
WTRBURY/OXFORD FAIR 73 47 39 W3 29.86F  
NORWALK HARBOR N/A 59 N/A N/A SE12 N/A  
BRIDGEPORT FAIR 68 49 50 S5 29.86F  
MERIDEN FAIR 69 47 45 S15G21 29.85F  
NEW HAVEN FAIR 70 48 45 S10 29.86F  
CHESTER FAIR 70 50 49 S9G16 29.88F  
GROTON FAIR 59 51 75 SE12 29.89F  
WILLIMANTIC FAIR 71 48 43 NW5 29.85F  
 
IN RI  
 
CITY SKY/WX TMP DP RH WIND PRES REMARKS
 
PROVIDENCE FAIR 62 51 67 E7 29.89F  
BLOCK ISLAND FAIR 56 51 84 S9 29.91F  
WESTERLY FAIR 58 53 84 SE12 29.91F  
 
IN MA  
 
CITY SKY/WX TMP DP RH WIND PRES REMARKS
 
BOSTON CLOUDY 49 44 83 E12 29.92  
WORCESTER FAIR 60 51 72 NE5 29.87F  
WESTFIELD FAIR 73 50 44 SE8 29.81F  
PROVINCETOWN CLOUDY 46 44 93 NE10 29.92F  
NANTUCKET PTSUNNY 51 44 77 N20G26 29.90F  

 
 
ANZ330-335-338-340-345-350-353-355-232100-  
COASTAL MARINE OBSERVATIONS  
 
 
STATION/POSITION TIME SKY/WX TEMP WIND PRES VSBY WAVE
 
AIR SEA DIR/SP/G HT/PER  
(UTC) (F) (DEG/KT/KT) (MB) (MI) (FT/S)  
NY HARB ENTRANCE 1950 54 51 160/ 10/ 10 1012.1  
20 S FIRE ISLAND 1950 55 53 180/ 8/ 8 1012.6 3/ 9  
GREAT SOUTH BAY NOT AVBL  
23 SSW MONTAUK P 1950 52 50 170/ 4/ 6 1013.0 4/ 9  
15 E BARNEGAT LI 1930 52 N/A 3/ 9  
HUDSON CANYON NOT AVBL  
KINGS POINT 1942 62 49 210/ 15/ 16 1012.4  
EXECUTION ROCKS NOT AVBL  
WESTERN LI SOUND NOT AVBL  
CENTRAL LI SOUND NOT AVBL  
ROBBINS REEF 1918 59 180/ 19/ 20 1011.7  

 
 
>>>>>>>>>>>>>>>>>>>>>>>>>>>> KEY <<<<<<<<<<<<<<<<<<<<<<<<<<<  
> <  
> SKY/WX - SKY CONDITION/PRESENT WEATHER <  
> TMP - TEMPERATURE IN FAHRENHEIT <  
> DP - DEW POINT IN FAHRENHEIT <  
> RH - RELATIVE HUMIDITY IN PERCENT <  
> WIND - DIRECTION (FROM) AND SPEED IN MPH <  
> PRES - MEAN SEA LEVEL PRESSURE (INCHES OF HG) <  
> WCI - WIND CHILL INDEX <  
> VSB - VISIBILITY IN MILES <  
> HX - HEAT INDEX <  
> TC - TEMPERATURE IN CELSIUS <  
> VRB - VARIABLE WIND DIRECTION <  
> <  
>>>>>>>>>>>>>>>>>>>>>>>>>>>> KEY <<<<<<<<<<<<<<<<<<<<<<<<<<<  
 
 
CLICK HERE TO GO TO PREVIOUS BULLETINS.

The Nexlab NY Page
The Nexlab NJ Page
The Nexlab CT Page Main Text Page